Somerville, NJ

4:41 PM EDT on May 26, 2017 (GMT -0400)
Somerset

Weather History for KSMQ - April, 2014

Change the Weather History Date:

Tuesday, April 15, 2014

  Actual Average Record
Temperature  
Mean Temperature 64 °F -  
Max Temperature 66 °F 59 °F 85 °F (1941)
Min Temperature 62 °F 35 °F 22 °F (1943)
Degree Days  
Heating Degree Days 1    
Growing Degree Days 14 (Base 50)    
Moisture  
Dew Point 60 °F    
Average Humidity 87    
Maximum Humidity 94    
Minimum Humidity 73    
Precipitation  
Precipitation 0.22 in - - ()
Sea Level Pressure  
Sea Level Pressure 29.66 in    
Wind  
Wind Speed 9 mph (SSE)    
Max Wind Speed 15 mph    
Max Gust Speed 25 mph    
Visibility 7 miles    
Events Fog , Rain    
Averages and records for this station are not official NWS values.
T = Trace of Precipitation, MM = Missing Value Source: NWS Daily Summary

Daily Weather History Graph

Daily Weather History Graph

Search for Another Location

Airport or City:

Trip Planner

Search our weather history database for the weather conditions in past years. The results will help you decide how hot, cold, wet, or windy it might be!

Date:

Astronomy

Apr. 15, 2014 Rise Set
Actual Time 6:20 AM EDT 7:37 PM EDT
Civil Twilight 5:51 AM EDT 8:06 PM EDT
Nautical Twilight 5:17 AM EDT 8:40 PM EDT
Astronomical Twilight 4:42 AM EDT 9:16 PM EDT
Moon 8:16 PM EDT (4/15) 6:26 AM EDT (4/15)
Length of Visible Light 14h 14m
Length of Day
13h 17m
Full, 100% of the Moon is Illuminated
Apr 15
Full
Apr 22
Last Quarter
Apr 29
New
May 6
First Quarter
May 14
Full

Hourly Weather History & Observations

Time (EDT) Temp. Dew Point Humidity Pressure Visibility Wind Dir Wind Speed Gust Speed Precip Events Conditions
12:53 AM 64.9 °F 55.9 °F 73% 29.82 in 10.0 mi South 10.4 mph 17.3 mph N/A   Partly Cloudy
1:53 AM 64.0 °F 55.0 °F 73% 29.78 in 10.0 mi SSE 5.8 mph - N/A   Clear
2:53 AM 64.0 °F 55.9 °F 75% 29.78 in 10.0 mi SE 5.8 mph - N/A   Mostly Cloudy
3:53 AM 64.0 °F 57.0 °F 78% 29.77 in 10.0 mi SSE 5.8 mph - N/A   Mostly Cloudy
4:31 AM 62.1 °F 59.0 °F 90% 29.75 in 9.0 mi SSE 6.9 mph - 0.03 in Rain Light Rain
4:53 AM 62.1 °F 59.0 °F 90% 29.74 in 9.0 mi SSE 8.1 mph - 0.03 in Rain Light Rain
5:04 AM 62.1 °F 59.0 °F 90% 29.73 in 5.0 mi SSE 5.8 mph - 0.01 in Rain Light Rain
5:23 AM 62.1 °F 59.0 °F 90% 29.73 in 9.0 mi SSE 6.9 mph - 0.01 in Rain Light Rain
5:53 AM 62.1 °F 59.0 °F 90% 29.72 in 10.0 mi South 6.9 mph - 0.01 in Rain Light Rain
6:05 AM 63.0 °F 59.0 °F 87% 29.72 in 10.0 mi South 10.4 mph - 0.00 in   Overcast
6:53 AM 63.0 °F 60.1 °F 90% 29.70 in 10.0 mi South 9.2 mph 19.6 mph 0.00 in   Overcast
7:53 AM 64.9 °F 61.0 °F 87% 29.68 in 10.0 mi South 9.2 mph 18.4 mph N/A   Overcast
8:53 AM 66.0 °F 61.0 °F 84% 29.65 in 10.0 mi South 11.5 mph - N/A   Overcast
9:53 AM 64.0 °F 61.0 °F 90% 29.62 in 6.0 mi SSE 15.0 mph 25.3 mph N/A   Overcast
10:53 AM 64.9 °F 61.0 °F 87% 29.60 in 5.0 mi South 12.7 mph 25.3 mph 0.00 in Rain Light Rain
11:18 AM 64.9 °F 62.1 °F 90% 29.59 in 2.0 mi South 11.5 mph 20.7 mph 0.09 in Rain Heavy Rain
11:25 AM 64.9 °F 62.1 °F 90% 29.59 in 3.0 mi South 13.8 mph 24.2 mph 0.10 in Rain Light Rain
11:34 AM 64.9 °F 62.1 °F 90% 29.59 in 6.0 mi South 12.7 mph 21.9 mph 0.11 in Rain Light Rain
11:43 AM 64.9 °F 62.1 °F 90% 29.59 in 7.0 mi South 13.8 mph 21.9 mph 0.12 in Rain Light Rain
11:53 AM 64.9 °F 63.0 °F 93% 29.58 in 5.0 mi South 11.5 mph 21.9 mph 0.13 in Rain Light Rain
12:53 PM 66.0 °F 63.0 °F 90% 29.52 in 7.0 mi SSE 10.4 mph - 0.05 in Rain Light Rain
1:04 PM 66.0 °F 63.0 °F 90% 29.53 in 4.0 mi South 10.4 mph 25.3 mph 0.03 in Rain Rain
1:09 PM 66.0 °F 63.0 °F 90% 29.55 in 0.5 mi Variable 5.8 mph 20.7 mph 0.30 in Fog , Rain Rain
1:19 PM 64.4 °F 62.6 °F 94% 29.54 in 0.5 mi SSE 6.9 mph - N/A Fog , Rain Light Rain